This is the latest recevied weather packets stored in our database for station/object JE6MIQ-13. If no packets are shown the sender has not sent any weather packets the latest 10 day(s).
| Time | Temp. | Humidity | Pressure | Rain* | Wind** | Luminosity | Snow |
|---|---|---|---|---|---|---|---|
| 1777460088 | 15° C | 37% | 1017.8 hPa | 0 mm | - | - | - |
| 1777459488 | 15° C | 37% | 1017.8 hPa | 0 mm | - | - | - |
| 1777458888 | 15° C | 38% | 1017.2 hPa | 0 mm | - | - | - |
| 1777458505 | 15° C | 38% | 1017.2 hPa | 0 mm | - | - | - |
| 1777457904 | 15° C | 38% | 1017.1 hPa | 0 mm | - | - | - |
| 1777457305 | 15° C | 41% | 1017.1 hPa | 0 mm | - | - | - |
| 1777456705 | 15° C | 42% | 1017.1 hPa | 0 mm | - | - | - |
| 1777456104 | 15° C | 43% | 1017.1 hPa | 0 mm | - | - | - |
| 1777455505 | 15° C | 42% | 1017.3 hPa | 0 mm | - | - | - |
| 1777454903 | 15° C | 44% | 1017.3 hPa | 0 mm | - | - | - |
| 1777454304 | 15° C | 44% | 1017.4 hPa | 0 mm | - | - | - |
| 1777453705 | 15° C | 44% | 1017.5 hPa | 0 mm | - | - | - |
| 1777453104 | 15° C | 43% | 1017.5 hPa | 0 mm | - | - | - |
| 1777452503 | 15° C | 40% | 1017.5 hPa | 0 mm | - | - | - |
| 1777451904 | 15.56° C | 40% | 1017.5 hPa | 0 mm | - | - | - |
| 1777451304 | 15.56° C | 37% | 1017.5 hPa | 0 mm | - | - | - |
| 1777450703 | 15.56° C | 34% | 1017.6 hPa | 0 mm | - | - | - |
| 1777450103 | 15.56° C | 32% | 1017.3 hPa | 0 mm | - | - | - |
| 1777449768 | 16.11° C | 31% | 1017.3 hPa | 0 mm | - | - | - |
| 1777449168 | 16.11° C | 28% | 1017.4 hPa | 0 mm | - | - | - |
| 1777448568 | 16.67° C | 25% | 1017.4 hPa | 0 mm | - | - | - |
| 1777447967 | 16.67° C | 25% | 1017.4 hPa | 0 mm | - | - | - |
| 1777447369 | 17.22° C | 25% | 1016.9 hPa | 0 mm | - | - | - |
| 1777446766 | 17.22° C | 25% | 1016.9 hPa | 0 mm | - | - | - |
| 1777446167 | 17.22° C | 25% | 1016.8 hPa | 0 mm | - | - | - |
* Rain latest hour (hover to see other rain measurements)
** Current wind speed in m/s (hover to see current wind gust speed)